[[{"header":{"parameterUnit":"m.s-1","parameterCategory":2,"la1":30.2991,"la2":30.254,"lo1":-89.0895,"lo2":-89.0444,"dy":0.0017,"dx":0.0017,"nx":28,"ny":28,"refTime":"2025-07-15T09:00:00:Z","depth":"0","parameterNumber":2,"parameterNumberName":"U-component_of_CURRENTS"},"data":[0,0,0,0,0,0,0,0,0,0,0,0,0,0,0,0,0,0,0,0,0,0,0,0,0,0,0,0,0,0,0,0,0,0,0,0,0,0,0,0,0,0,0,0,0,0,0,0,0,0,0,0,0,0,0,0,0,0,0.4301,0.4301,0,0.4359,0.4359,0.436,0.4266,0.4263,0.426,0.4257,0.4233,0.4235,0.4238,0,0,0,0,0,0,0,0,0,0,0,0,0,0.4122,0.4125,0.4301,0.4301,0.4302,0.4359,0.4359,0.436,0.4267,0.4263,0.4259,0.4255,0.4232,0.4235,0.4238,0,0,0,0,0,0,0,0,0,0,0,0,0,0.4192,0.4127,0.4301,0.4262,0.4259,0.4358,0.4359,0.436,0.4268,0.4263,0.4258,0.4253,0.4231,0.4235,0.4238,0.4357,0,0,0.4249,0.4251,0,0,0,0,0,0,0,0,0.4188,0.4198,0.4267,0.4265,0.4262,0.43,0.4288,0.4355,0.4269,0.4265,0.4257,0.4251,0.4252,0.4253,0.4276,0.4356,0.4355,0.4249,0.4252,0.4253,0.4254,0,0,0,0,0,0,0,0.4183,0.4195,0.4324,0.4268,0.4265,0.4246,0.4251,0.43,0.4283,0.4265,0.4258,0.4266,0.4249,0.4273,0.4274,0.4355,0.4249,0.4253,0.4255,0.4256,0.4461,0.4464,0,0,0,0,0,0,0.4182,0.4192,0.4322,0.4325,0.4212,0.4254,0.4259,0.4293,0.4284,0.4279,0.427,0.4261,0.4269,0.427,0.4273,0.4355,0.4253,0.4256,0.4258,0.4458,0.4462,0.4466,0,0,0,0,0,0,0.4178,0.4194,0.4319,0.4257,0.4272,0.4262,0.4301,0.4297,0.4299,0.4289,0.4281,0.4273,0.4265,0.4268,0.4308,0.4355,0.4258,0.4261,0.4454,0.4459,0.4464,0.4557,0,0,0,0,0,0,0.4173,0.4193,0.4222,0.4259,0.4275,0.4388,0.4306,0.4301,0.4312,0.4301,0.4291,0.4284,0.4262,0.4303,0.4311,0.4358,0.4264,0.445,0.4456,0.4462,0.455,0.4564,0.4577,0,0,0,0,0,0.4167,0.4242,0.4224,0.424,0.4315,0.4391,0.4399,0.4373,0.4317,0.435,0.4325,0.4283,0.4347,0.4309,0.4318,0.4367,0.4447,0.4455,0.4462,0.4543,0.4561,0.4577,0,0,0,0,0,0,0.4226,0.4241,0.4221,0.4308,0.4343,0.4374,0.4407,0.4385,0.4397,0.4371,0.4335,0.4332,0.4393,0.4378,0.4336,0.4447,0.4389,0.4399,0.4448,0.4465,0.4479,0.4487,0.4267,0,0,0,0,0,0.4245,0.4269,0.4306,0.4375,0.4392,0.4397,0.4421,0.4408,0.4422,0.4419,0.441,0.4408,0.4445,0.4444,0.4483,0.4546,0.4549,0.4583,0.4597,0.4608,0.4624,0.4652,0.4669,0.449,0.449,0.449,0,0,0.4282,0.4299,0.4312,0.4382,0.4399,0.4452,0.4399,0.445,0.4483,0.4422,0.4464,0.4473,0.4479,0.4546,0.457,0.4525,0.4673,0.4618,0.4627,0.4637,0.4662,0.4679,0.4694,0.4495,0.4494,0.4493,0,0,0.4369,0.439,0.4427,0.4459,0.4493,0.4506,0.4518,0.4552,0.455,0.4611,0.4572,0.4604,0.4652,0.4662,0.4672,0.4793,0.476,0.4802,0.4858,0.4886,0.49,0.4912,0.4979,0.4996,0.4787,0.4787,0.4787,0,0.4412,0.4464,0.4461,0.4515,0.4534,0.4527,0.458,0.4615,0.4653,0.4655,0.4631,0.47,0.4713,0.4772,0.4818,0.4824,0.484,0.4787,0.4901,0.4913,0.4923,0.4989,0.5007,0.4792,0.4792,0.4791,0.4791,0,0.4513,0.4553,0.4592,0.4626,0.4663,0.4718,0.4745,0.4776,0.4764,0.4775,0.4834,0.4859,0.4874,0.4907,0.4906,0.4993,0.4985,0.4928,0.4849,0.4947,0.5011,0.5028,0.48,0.4798,0.4797,0.4795,0,0,0.4602,0.4644,0.4654,0.4654,0.4712,0.4747,0.4814,0.4859,0.4862,0.4919,0.4934,0.5034,0.5009,0.5024,0.5022,0.5066,0.5189,0.5038,0.5036,0.5091,0.5283,0.5155,0.5161,0.5135,0.5138,0.514,0.531,0,0.467,0.4749,0.476,0.4823,0.4853,0.4857,0.4908,0.4942,0.4954,0.4979,0.5011,0.5041,0.5061,0.5056,0.5116,0.5156,0.5232,0.5151,0.5193,0.5197,0.5057,0.5175,0.4907,0.5023,0.5327,0.5329,0.5331,0,0.4745,0.4777,0.4839,0.4855,0.4869,0.4905,0.492,0.4968,0.5008,0.5018,0.5048,0.5054,0.5144,0.5128,0.5273,0.5212,0.5281,0.5323,0.5327,0.5182,0.5098,0.4969,0.5042,0.4842,0.5357,0.5355,0.5353,0,0.4743,0.4818,0.4844,0.4861,0.4905,0.4912,0.4929,0.4962,0.497,0.502,0.5015,0.5107,0.5117,0.5229,0.5312,0.5299,0.5456,0.5426,0.5397,0.5391,0.5158,0.5124,0.5021,0.5559,0.5559,0.5558,0.5558,0,0.4781,0.4803,0.4833,0.4846,0.4855,0.489,0.489,0.4921,0.4946,0.4938,0.5011,0.5014,0.5138,0.5213,0.533,0.5404,0.5465,0.5448,0.5425,0.5188,0.5156,0.4964,0.4914,0.5564,0.5563,0.5562,0.5561,0,0.476,0.4792,0.481,0.4844,0.4844,0.4839,0.4837,0.483,0.4875,0.4863,0.4874,0.4953,0.5047,0.5173,0.5336,0.5378,0.5324,0.5505,0.5238,0.5179,0.494,0.4906,0.4747,0.4636,0.5522,0.552,0.5518,0,0.475,0.476,0.4778,0.4761,0.4764,0.4757,0.4739,0.4781,0.4759,0.481,0.4789,0.4875,0.4925,0.5118,0.5196,0.5364,0.5226,0.5187,0.5114,0.4912,0.486,0.474,0.4652,0.4884,0.4878,0.4872,0.4867,0,0.4713,0.4715,0.4724,0.4696,0.4666,0.463,0.4603,0.4579,0.4611,0.4615,0.4632,0.4693,0.4842,0.4832,0.4986,0.5065,0.4878,0.5075,0.4913,0.4404,0.4219,0.4101,0.4832,0.4817,0.4822,0.4826,0.4829,0.4831,0.4662,0.4651,0.4648,0.4614,0.4568,0.448,0.439,0.4371,0.4325,0.4244,0.441,0.4372,0.4431,0.4608,0.4684,0.4482,0.46,0.4325,0.4333,0.4255,0.4022,0.4665,0.457,0.4574,0.4577,0.4579,0.4582,0,0.4591,0.4586,0.4558,0.4483,0.4375,0.4383,0.4271,0.4135,0.4012,0.3994,0.3986,0.3874,0.385,0.391,0.3833,0.3733,0.367,0.3595,0.3348,0.333,0.3922,0.3758,0.3418,0.3418,0.3418,0.3418,0.3418,0.3419,0.4548,0.4507,0.4501,0.4313,0.4229,0.399,0.3884,0.3706,0.3613,0.3369,0.3212,0.3235,0.3281,0.3225,0.3066,0.304,0.2874,0.272,0.2816,0.3182,0.3249,0.3312,0.3141,0.2677,0.2676,0.2044,0.2039,0.2035]},{"header":{"parameterUnit":"m.s-1","parameterCategory":2,"la1":30.2991,"la2":30.254,"lo1":-89.0895,"lo2":-89.0444,"dy":0.0017,"dx":0.0017,"nx":28,"ny":28,"refTime":"2025-07-15T09:00:00:Z","depth":"0","parameterNumber":3,"parameterNumberName":"V-component_of_CURRENTS"},"data":[0,0,0,0,0,0,0,0,0,0,0,0,0,0,0,0,0,0,0,0,0,0,0,0,0,0,0,0,0,0,0,0,0,0,0,0,0,0,0,0,0,0,0,0,0,0,0,0,0,0,0,0,0,0,0,0,0,0,-0.0075,-0.0076,0,-0.0203,-0.0204,-0.0206,-0.032,-0.0322,-0.0323,-0.0324,-0.0499,-0.0502,-0.0505,0,0,0,0,0,0,0,0,0,0,0,0,0,0.0013,0.0013,-0.0075,-0.0076,-0.0078,-0.0202,-0.0204,-0.0206,-0.032,-0.0322,-0.0323,-0.0325,-0.0497,-0.0501,-0.0506,0,0,0,0,0,0,0,0,0,0,0,0,0,-0.0062,0.0012,-0.0075,-0.0149,-0.0156,-0.0202,-0.0204,-0.0207,-0.032,-0.0322,-0.0324,-0.0325,-0.0496,-0.0501,-0.0506,-0.0502,0,0,-0.0522,-0.0525,0,0,0,0,0,0,0,0,-0.0057,-0.0065,-0.0136,-0.0143,-0.0152,-0.0246,-0.0237,-0.0307,-0.0319,-0.0259,-0.0324,-0.0326,-0.0416,-0.0428,-0.045,-0.0511,-0.0518,-0.0523,-0.0526,-0.0528,-0.053,0,0,0,0,0,0,0,-0.0052,-0.0061,-0.0127,-0.0137,-0.0147,-0.0195,-0.0207,-0.0251,-0.0328,-0.0265,-0.0273,-0.0284,-0.0421,-0.0444,-0.0455,-0.0521,-0.0523,-0.0527,-0.0531,-0.0533,-0.0568,-0.0566,0,0,0,0,0,0,-0.0028,-0.0055,-0.0123,-0.0131,-0.0107,-0.0195,-0.0209,-0.0215,-0.0327,-0.0345,-0.0283,-0.0289,-0.0434,-0.0448,-0.0461,-0.0461,-0.0528,-0.0533,-0.0536,-0.0571,-0.0568,-0.0565,0,0,0,0,0,0,-0.0026,-0.0033,-0.0118,-0.0095,-0.0109,-0.0194,-0.0201,-0.0217,-0.0242,-0.0339,-0.0359,-0.0291,-0.0436,-0.0454,-0.0496,-0.0469,-0.0536,-0.054,-0.0573,-0.057,-0.0567,-0.0462,0,0,0,0,0,0,-0.0022,-0.0031,-0.0024,-0.0093,-0.011,-0.0142,-0.0199,-0.0218,-0.0245,-0.0255,-0.0353,-0.0371,-0.0439,-0.0488,-0.0501,-0.0477,-0.0545,-0.0576,-0.0572,-0.0568,-0.0468,-0.0456,-0.0445,0,0,0,0,0,-0.0019,-0.0017,-0.0023,-0.0031,-0.0098,-0.0141,-0.0154,-0.0222,-0.0243,-0.0251,-0.0311,-0.0368,-0.047,-0.0491,-0.0507,-0.0484,-0.0578,-0.0573,-0.0568,-0.0474,-0.0458,-0.0445,0,0,0,0,0,0,0.0018,-0.0029,-0.0038,-0.005,-0.0084,-0.016,-0.0177,-0.0206,-0.0258,-0.027,-0.0354,-0.0376,-0.0399,-0.0446,-0.0466,-0.0476,-0.0527,-0.0525,-0.0449,-0.0436,-0.0424,-0.0409,-0.0549,0,0,0,0,0,0.0038,0.0026,-0.0017,-0.0026,-0.0038,-0.0095,-0.0119,-0.0158,-0.0213,-0.0238,-0.0299,-0.0352,-0.0387,-0.0417,-0.0461,-0.0473,-0.0481,-0.0461,-0.0449,-0.0439,-0.0434,-0.0393,-0.0377,-0.0549,-0.0549,-0.0549,0,0,0.0043,0.0022,0.0011,-0.0018,-0.0053,-0.0074,-0.0116,-0.0148,-0.0163,-0.0247,-0.0283,-0.0317,-0.0379,-0.0397,-0.0409,-0.0438,-0.0393,-0.0433,-0.0424,-0.0425,-0.0387,-0.037,-0.0355,-0.0546,-0.0546,-0.0547,0,0,0.004,0.004,0.0024,0.0007,-0.0028,-0.0055,-0.0053,-0.0108,-0.013,-0.0158,-0.0209,-0.0215,-0.0294,-0.0315,-0.034,-0.0281,-0.0329,-0.0294,-0.0233,-0.0193,-0.0178,-0.0166,-0.015,-0.0137,-0.0292,-0.0292,-0.0291,0,0.0044,0.0033,0.0014,-0.0001,-0.0013,-0.0038,-0.0051,-0.0071,-0.013,-0.0127,-0.016,-0.02,-0.0249,-0.0244,-0.0229,-0.0254,-0.0252,-0.0288,-0.0177,-0.0165,-0.0154,-0.0141,-0.0128,-0.0286,-0.0287,-0.0287,-0.0288,0,0.0027,0.0024,0.0015,-0.0005,-0.0013,-0.0027,-0.0045,-0.0044,-0.0057,-0.0072,-0.006,-0.0103,-0.0126,-0.0125,-0.0173,-0.0111,-0.014,-0.0164,-0.0214,-0.013,-0.0122,-0.0111,-0.0278,-0.028,-0.0282,-0.0283,0,0,0.0011,0.0002,0.0,0.0005,-0.0012,-0.0019,-0.0014,-0.0009,0.0009,-0.0007,0.0022,-0.0001,-0.0,-0.0024,-0.0051,-0.0013,0.0067,-0.0056,-0.0056,-0.0042,0.0143,0.0125,0.0135,0.0062,0.0065,0.0067,0.0119,0,-0.0,-0.0011,-0.0013,-0.0012,-0.0013,-0.0009,0.0001,0.0012,0.0021,0.0048,0.0062,0.0067,0.0031,0.0033,0.007,0.0065,0.0102,0.0054,0.006,0.006,0.0034,0.0151,0.0155,0.0203,0.0129,0.0131,0.0133,0,-0.0014,-0.0015,-0.0015,0.0007,0.0008,0.0011,0.0053,0.0058,0.0101,0.0111,0.0145,0.0142,0.0191,0.0152,0.0208,0.0177,0.0169,0.0171,0.0173,0.0127,0.0066,0.0107,0.0226,0.008,0.015,0.0148,0.0147,0,-0.0003,-0.0008,0.0003,0.0003,0.0017,0.0033,0.0046,0.0082,0.0112,0.016,0.0197,0.0236,0.0269,0.0284,0.0282,0.0247,0.035,0.0296,0.0277,0.0274,0.0264,0.0256,0.0242,0.0351,0.0351,0.0351,0.035,0,-0.0004,0.0003,0.0012,0.0017,0.0047,0.005,0.0096,0.0115,0.0166,0.0239,0.0235,0.0314,0.0309,0.0357,0.0332,0.0356,0.039,0.0316,0.0305,0.03,0.0295,0.0153,0.006,0.0352,0.0352,0.0352,0.0351,0,0.0003,0.0005,0.0022,0.0042,0.0052,0.0075,0.0122,0.0165,0.0202,0.0301,0.0324,0.0393,0.0469,0.0456,0.0494,0.0429,0.0378,0.0432,0.0415,0.0401,0.0218,0.0131,0.0134,0.0091,0.0416,0.0416,0.0416,0,0.0001,0.001,0.0043,0.0063,0.0071,0.0105,0.0142,0.018,0.0243,0.0374,0.0443,0.053,0.0654,0.0682,0.0593,0.0556,0.0429,0.0473,0.0408,0.0238,0.0133,0.0087,0.0047,0.0436,0.0436,0.0436,0.0437,0,0.0,0.0017,0.0035,0.0081,0.0119,0.0176,0.0237,0.0306,0.0393,0.0517,0.0708,0.0821,0.0828,0.084,0.0726,0.0652,0.0368,0.0474,0.0323,0.018,0.0109,0.0051,0.0341,0.0439,0.0439,0.0438,0.0438,0.0438,0.0002,0.0021,0.0057,0.0104,0.0159,0.0269,0.0378,0.0488,0.066,0.0911,0.0945,0.1186,0.1042,0.0924,0.0757,0.0394,0.0409,0.0282,0.0202,0.018,0.0113,0.0394,0.0457,0.0457,0.0457,0.0457,0.0456,0,0.0006,0.0036,0.0078,0.0164,0.0263,0.0292,0.0465,0.0622,0.0903,0.1122,0.1338,0.1422,0.1233,0.0935,0.0458,0.0183,0.0077,0.0014,-0.0062,-0.0082,0.0198,0.0168,0.0141,0.0141,0.0141,0.0141,0.0141,0.0142,0.0012,0.0052,0.0082,0.0241,0.0335,0.0545,0.0694,0.0926,0.1135,0.1477,0.1658,0.1754,0.1501,0.0629,0.0021,-0.013,-0.0327,-0.0352,-0.0443,-0.0302,-0.0284,-0.0267,-0.0316,-0.0444,-0.0445,-0.0673,-0.0676,-0.0679]}],[{"header":{"parameterUnit":"m.s-1","parameterCategory":2,"la1":30.2991,"la2":30.254,"lo1":-89.0895,"lo2":-89.0444,"dy":0.0017,"dx":0.0017,"nx":28,"ny":28,"refTime":"2025-07-15T09:00:00:Z","depth":"2","parameterNumber":2,"parameterNumberName":"U-component_of_CURRENTS"},"data":[0,0,0,0,0,0,0,0,0,0,0,0,0,0,0,0,0,0,0,0,0,0,0,0,0,0,0,0,0,0,0,0,0,0,0,0,0,0,0,0,0,0,0,0,0,0,0,0,0,0,0,0,0,0,0,0,0,0,0.2472,0.2471,0,0.2396,0.2395,0.2394,0.2488,0.2491,0.2495,0.2498,0.2503,0.25,0.2497,0,0,0,0,0,0,0,0,0,0,0,0,0,0.2699,0.2694,0.2472,0.2471,0.247,0.2396,0.2395,0.2394,0.2487,0.2491,0.2496,0.25,0.2504,0.2501,0.2497,0,0,0,0,0,0,0,0,0,0,0,0,0,0.2607,0.2692,0.2472,0.2509,0.2512,0.2397,0.2395,0.2394,0.2486,0.2492,0.2497,0.2502,0.2506,0.2501,0.2496,0.2358,0,0,0.2481,0.2479,0,0,0,0,0,0,0,0,0.2612,0.2599,0.2505,0.2507,0.2509,0.2459,0.2477,0.2386,0.2485,0.2494,0.2498,0.2505,0.2493,0.2489,0.2459,0.2358,0.2358,0.2481,0.2478,0.2476,0.2474,0,0,0,0,0,0,0,0.2619,0.2602,0.244,0.2503,0.2506,0.2531,0.2523,0.246,0.2464,0.2494,0.2501,0.2493,0.2496,0.2464,0.246,0.2358,0.2481,0.2477,0.2474,0.2472,0.2425,0.2426,0,0,0,0,0,0,0.2624,0.2607,0.2443,0.2438,0.2577,0.2522,0.2514,0.2468,0.2463,0.2467,0.2489,0.2498,0.2469,0.2466,0.2461,0.2486,0.2476,0.2471,0.2469,0.2423,0.2425,0.2427,0,0,0,0,0,0,0.2628,0.2608,0.2446,0.2526,0.2508,0.2513,0.246,0.2464,0.2487,0.2459,0.2466,0.2516,0.2473,0.2468,0.2472,0.2481,0.2469,0.2465,0.2421,0.2424,0.2426,0.2414,0,0,0,0,0,0,0.2634,0.2609,0.2589,0.2524,0.2503,0.2391,0.2455,0.2458,0.2472,0.2485,0.2482,0.2486,0.2477,0.2479,0.2467,0.2474,0.2461,0.2419,0.2422,0.2425,0.2413,0.2416,0.2419,0,0,0,0,0,0.2642,0.2544,0.2587,0.2569,0.247,0.2389,0.2379,0.2403,0.2468,0.2451,0.2493,0.2489,0.2493,0.2474,0.246,0.2466,0.2417,0.2421,0.2425,0.2411,0.2415,0.2419,0,0,0,0,0,0,0.2586,0.2543,0.2589,0.2476,0.2464,0.2407,0.2381,0.2414,0.2424,0.2467,0.2473,0.2476,0.2486,0.248,0.2461,0.2473,0.2466,0.2467,0.2461,0.2465,0.2468,0.2504,0.2457,0,0,0,0,0,0.2576,0.2528,0.2497,0.242,0.2415,0.242,0.2401,0.2424,0.2418,0.2431,0.2443,0.247,0.2471,0.2478,0.2464,0.2438,0.2499,0.245,0.2453,0.2456,0.2482,0.2586,0.2601,0.2439,0.2439,0.2439,0,0,0.2529,0.2507,0.2476,0.2414,0.2411,0.2388,0.2421,0.2391,0.2402,0.2422,0.2448,0.2462,0.2468,0.2464,0.247,0.247,0.2536,0.246,0.2462,0.2488,0.2591,0.2607,0.2621,0.2442,0.2441,0.2441,0,0,0.2425,0.2404,0.2361,0.2357,0.2365,0.2361,0.237,0.2357,0.2389,0.2383,0.244,0.2479,0.2444,0.2479,0.2485,0.2494,0.2543,0.2499,0.2539,0.2638,0.2652,0.2665,0.2767,0.2789,0.2507,0.2507,0.2507,0,0.2381,0.2337,0.2331,0.2313,0.2321,0.2364,0.2349,0.2349,0.2354,0.2391,0.2402,0.2457,0.2453,0.25,0.2523,0.2498,0.2577,0.2511,0.2642,0.2656,0.267,0.2771,0.2796,0.2507,0.2507,0.2507,0.2507,0,0.228,0.2274,0.2238,0.2262,0.2253,0.2233,0.2263,0.2289,0.2342,0.2368,0.2431,0.2444,0.2499,0.2499,0.2504,0.2609,0.2641,0.2624,0.2627,0.2686,0.2788,0.2815,0.2507,0.2507,0.2507,0.2507,0,0,0.2122,0.2164,0.2168,0.2219,0.2246,0.2224,0.2253,0.229,0.235,0.2375,0.2451,0.2471,0.2533,0.2551,0.2584,0.2671,0.282,0.2703,0.2708,0.2797,0.3071,0.287,0.288,0.2839,0.2843,0.2847,0.3104,0,0.2077,0.2061,0.2091,0.2113,0.2124,0.2194,0.2216,0.227,0.2325,0.2398,0.2468,0.2529,0.2536,0.2586,0.2675,0.2778,0.2891,0.2754,0.3009,0.3017,0.2825,0.2903,0.2611,0.2795,0.313,0.3134,0.3137,0,0.2007,0.2021,0.2028,0.2115,0.2125,0.2144,0.2245,0.2269,0.2379,0.2427,0.2525,0.2585,0.2718,0.2711,0.2948,0.2871,0.2993,0.3071,0.3082,0.292,0.2864,0.2793,0.2831,0.3182,0.3178,0.3175,0.3172,0,0.1962,0.1992,0.2017,0.2038,0.2109,0.2154,0.2201,0.2296,0.2352,0.2477,0.2552,0.2684,0.2794,0.2939,0.3089,0.3053,0.3354,0.3309,0.3256,0.3245,0.3057,0.3018,0.3518,0.3518,0.3517,0.3517,0.3516,0,0.1916,0.1946,0.2012,0.203,0.2076,0.2143,0.2216,0.2278,0.24,0.2482,0.259,0.2691,0.2871,0.304,0.3149,0.3274,0.3411,0.3293,0.33,0.304,0.2999,0.3373,0.3353,0.3526,0.3524,0.3522,0.3521,0,0.1876,0.1918,0.1955,0.2034,0.2062,0.2101,0.2214,0.2268,0.2398,0.2518,0.2572,0.2766,0.2946,0.3107,0.3357,0.3348,0.3475,0.3503,0.3175,0.3134,0.3296,0.3273,0.3458,0.3453,0.3449,0.3445,0.3442,0,0.1857,0.1871,0.1942,0.1966,0.2011,0.208,0.2125,0.2246,0.2308,0.2547,0.2601,0.2832,0.2926,0.3179,0.3187,0.3309,0.3465,0.3134,0.2965,0.3302,0.3293,0.3276,0.3259,0.2751,0.2743,0.2736,0.2731,0,0.1816,0.1849,0.1874,0.1924,0.1975,0.2015,0.21,0.2153,0.2309,0.2448,0.264,0.2746,0.2887,0.2825,0.2919,0.2948,0.3051,0.2989,0.3499,0.2752,0.264,0.2628,0.2635,0.267,0.2676,0.2681,0.2684,0.2686,0.1787,0.1791,0.1832,0.1881,0.1925,0.1967,0.2029,0.2098,0.2218,0.2371,0.2514,0.2582,0.2577,0.2514,0.2495,0.2484,0.2676,0.2607,0.2629,0.2658,0.247,0.2349,0.2295,0.2298,0.2302,0.2305,0.2307,0,0.1741,0.1766,0.1791,0.1851,0.1897,0.1978,0.2026,0.2041,0.2158,0.2203,0.2314,0.212,0.204,0.2096,0.1939,0.192,0.1919,0.1896,0.1886,0.1944,0.1997,0.1776,0.1418,0.1416,0.1414,0.1412,0,0,0.1714,0.1712,0.1729,0.1803,0.1919,0.1984,0.2046,0.1999,0.1967,0.1922,0.1909,0.1956,0.2004,0.169,0.1625,0.1514,0.1732,0.1457,0.2161,0.2206,0.2257,0.2384,0.2104,0,0,0,0,0]},{"header":{"parameterUnit":"m.s-1","parameterCategory":2,"la1":30.2991,"la2":30.254,"lo1":-89.0895,"lo2":-89.0444,"dy":0.0017,"dx":0.0017,"nx":28,"ny":28,"refTime":"2025-07-15T09:00:00:Z","depth":"2","parameterNumber":3,"parameterNumberName":"V-component_of_CURRENTS"},"data":[0,0,0,0,0,0,0,0,0,0,0,0,0,0,0,0,0,0,0,0,0,0,0,0,0,0,0,0,0,0,0,0,0,0,0,0,0,0,0,0,0,0,0,0,0,0,0,0,0,0,0,0,0,0,0,0,0,0,-0.025,-0.0251,0,-0.037,-0.0372,-0.0373,-0.0442,-0.0443,-0.0443,-0.0443,-0.0588,-0.0591,-0.0595,0,0,0,0,0,0,0,0,0,0,0,0,0,-0.01,-0.0102,-0.025,-0.0251,-0.0253,-0.037,-0.0372,-0.0374,-0.0442,-0.0443,-0.0443,-0.0443,-0.0586,-0.0591,-0.0595,0,0,0,0,0,0,0,0,0,0,0,0,0,-0.0188,-0.0103,-0.025,-0.03,-0.0306,-0.037,-0.0372,-0.0374,-0.0442,-0.0443,-0.0443,-0.0443,-0.0585,-0.059,-0.0596,-0.0625,0,0,-0.0613,-0.0615,0,0,0,0,0,0,0,0,-0.0183,-0.0194,-0.0292,-0.0297,-0.0304,-0.0391,-0.0372,-0.0459,-0.0442,-0.0392,-0.0443,-0.0443,-0.0523,-0.0534,-0.0557,-0.0632,-0.0638,-0.0613,-0.0617,-0.0619,-0.0621,0,0,0,0,0,0,0,-0.0177,-0.0189,-0.0299,-0.0293,-0.03,-0.0324,-0.0337,-0.0389,-0.0456,-0.0396,-0.0401,-0.0413,-0.0527,-0.0552,-0.0561,-0.064,-0.0613,-0.0618,-0.0622,-0.0624,-0.0765,-0.0766,0,0,0,0,0,0,-0.0159,-0.0183,-0.0295,-0.0302,-0.0241,-0.0326,-0.0341,-0.0363,-0.0455,-0.0469,-0.0413,-0.0416,-0.0542,-0.0554,-0.0566,-0.0593,-0.0619,-0.0624,-0.0627,-0.0765,-0.0766,-0.0766,0,0,0,0,0,0,-0.0155,-0.0168,-0.029,-0.0244,-0.0261,-0.0328,-0.0354,-0.0366,-0.04,-0.0467,-0.0481,-0.0435,-0.0543,-0.0559,-0.0626,-0.06,-0.0627,-0.0632,-0.0765,-0.0765,-0.0766,-0.0655,0,0,0,0,0,0,-0.0151,-0.0166,-0.0182,-0.0243,-0.0263,-0.0325,-0.0354,-0.0368,-0.0406,-0.0411,-0.0491,-0.0504,-0.0544,-0.0618,-0.0632,-0.0608,-0.0636,-0.0764,-0.0765,-0.0766,-0.0658,-0.0652,-0.0647,0,0,0,0,0,-0.0145,-0.0165,-0.0182,-0.0196,-0.0281,-0.0325,-0.0338,-0.0387,-0.0406,-0.0419,-0.0481,-0.0502,-0.0632,-0.0624,-0.064,-0.0616,-0.0764,-0.0765,-0.0766,-0.0661,-0.0653,-0.0647,0,0,0,0,0,0,-0.0111,-0.0175,-0.0196,-0.0235,-0.0274,-0.0336,-0.0358,-0.0389,-0.0448,-0.0459,-0.052,-0.0538,-0.0584,-0.0628,-0.0617,-0.0663,-0.0697,-0.0701,-0.0612,-0.0605,-0.0599,-0.0535,-0.0641,0,0,0,0,0,-0.0108,-0.0139,-0.0196,-0.0225,-0.0244,-0.03,-0.0327,-0.0359,-0.0416,-0.0443,-0.0497,-0.0556,-0.06,-0.0625,-0.0679,-0.0711,-0.0693,-0.0707,-0.0701,-0.0695,-0.0657,-0.062,-0.0605,-0.0769,-0.0769,-0.0769,0,0,-0.01,-0.0141,-0.0158,-0.0219,-0.0255,-0.0266,-0.0318,-0.0357,-0.036,-0.0449,-0.0482,-0.0545,-0.0609,-0.064,-0.0662,-0.0673,-0.0639,-0.0696,-0.069,-0.0655,-0.0619,-0.0602,-0.0587,-0.077,-0.077,-0.077,0,0,-0.008,-0.0137,-0.0143,-0.0173,-0.0224,-0.0255,-0.0263,-0.0326,-0.0351,-0.0399,-0.0451,-0.0486,-0.0582,-0.0591,-0.0614,-0.0609,-0.0615,-0.0649,-0.0557,-0.0522,-0.0506,-0.0492,-0.0433,-0.0415,-0.0638,-0.0638,-0.0637,0,-0.006,-0.0082,-0.0149,-0.0155,-0.0165,-0.0241,-0.0228,-0.0266,-0.0342,-0.0338,-0.0397,-0.0473,-0.0537,-0.0521,-0.0531,-0.0585,-0.0573,-0.0572,-0.0507,-0.0493,-0.048,-0.0424,-0.0405,-0.0632,-0.0633,-0.0633,-0.0634,0,-0.003,-0.0051,-0.0059,-0.0083,-0.0103,-0.0116,-0.0161,-0.0181,-0.0226,-0.025,-0.0268,-0.0354,-0.0379,-0.0418,-0.0482,-0.0426,-0.0448,-0.0504,-0.0507,-0.0455,-0.0401,-0.0383,-0.0625,-0.0627,-0.0628,-0.063,0,0,0.0033,-0.0021,-0.0022,-0.0009,-0.0065,-0.0067,-0.0068,-0.0067,-0.003,-0.0116,-0.0059,-0.0156,-0.0192,-0.022,-0.0291,-0.0276,-0.0193,-0.0356,-0.0357,-0.0264,-0.0098,-0.0185,-0.0174,-0.0249,-0.0245,-0.0243,-0.0089,0,0.0088,0.0105,0.0061,0.0095,0.0105,0.0055,0.0076,0.0065,0.004,0.0068,0.001,0.0006,-0.0119,-0.0129,-0.013,-0.0187,-0.0145,-0.0228,-0.019,-0.0187,-0.0244,-0.0156,-0.0221,-0.0098,-0.0072,-0.0069,-0.0066,0,0.0144,0.0148,0.0188,0.0205,0.021,0.0221,0.027,0.0274,0.0287,0.0271,0.0266,0.0211,0.0218,0.0096,0.0094,0.0037,-0.0007,-0.0049,-0.0045,-0.0144,-0.0241,-0.0153,-0.0066,-0.0037,-0.0039,-0.0041,-0.0043,0,0.0239,0.0245,0.0287,0.0285,0.0288,0.0316,0.0325,0.0341,0.0386,0.0406,0.0453,0.0426,0.0438,0.0372,0.0255,0.0182,0.0266,0.0161,0.0068,0.0063,0.001,-0.0008,0.021,0.021,0.0209,0.0209,0.0209,0,0.0313,0.0346,0.0333,0.0355,0.0433,0.0404,0.0499,0.0498,0.0553,0.0643,0.0564,0.0653,0.0502,0.0507,0.0374,0.0291,0.0372,0.0132,0.0107,0.0041,0.0026,0.0062,0.0043,0.0215,0.0214,0.0212,0.0211,0,0.0393,0.0378,0.0433,0.0457,0.0468,0.0523,0.0591,0.0677,0.0694,0.0819,0.0837,0.086,0.0843,0.0709,0.0636,0.0465,0.0378,0.0335,0.0273,0.0235,0.0128,0.0112,0.026,0.0259,0.0257,0.0256,0.0255,0,0.0427,0.0463,0.051,0.0554,0.0558,0.063,0.07,0.0734,0.0837,0.0959,0.1057,0.1079,0.1105,0.097,0.0666,0.0461,0.0453,0.0283,0.0112,0.0178,0.0139,0.0125,0.0111,0.0106,0.0104,0.0103,0.0101,0,0.0505,0.0521,0.0568,0.0658,0.0729,0.0819,0.0918,0.1028,0.1103,0.1209,0.137,0.1397,0.1215,0.0958,0.063,0.0469,0.0284,0.0237,0.0386,0.0065,0.0034,-0.0007,-0.0014,0.0086,0.0088,0.0089,0.009,0.009,0.0562,0.0621,0.0687,0.0778,0.0853,0.0982,0.1095,0.1233,0.1395,0.1508,0.1546,0.1517,0.1233,0.0737,0.0494,0.0188,0.0187,0.0052,0.0058,0.0066,-0.0018,-0.0054,-0.003,-0.0029,-0.0029,-0.0028,-0.0028,0,0.064,0.0703,0.0804,0.0907,0.1003,0.101,0.1226,0.1337,0.1537,0.1566,0.1617,0.1298,0.1011,0.0727,0.0207,-0.0069,-0.0088,-0.0104,-0.0091,-0.0077,-0.0064,-0.0154,-0.0202,-0.0202,-0.0203,-0.0203,0,0,0.0686,0.0803,0.0865,0.1014,0.1062,0.1209,0.133,0.1474,0.1552,0.1566,0.148,0.1348,0.1019,0.0628,0.0279,0.003,0.0047,-0.0009,0.0139,0.0203,0.022,0.0015,-0.0111,0,0,0,0,0]}],[{"header":{"parameterUnit":"m.s-1","parameterCategory":2,"la1":30.2991,"la2":30.254,"lo1":-89.0895,"lo2":-89.0444,"dy":0.0017,"dx":0.0017,"nx":28,"ny":28,"refTime":"2025-07-15T09:00:00:Z","depth":"4","parameterNumber":2,"parameterNumberName":"U-component_of_CURRENTS"},"data":[0,0,0,0,0,0,0,0,0,0,0,0,0,0,0,0,0,0,0,0,0,0,0,0,0,0,0,0,0,0,0,0,0,0,0,0,0,0,0,0,0,0,0,0,0,0,0,0,0,0,0,0,0,0,0,0,0,0,0.0118,0.012,0,0.0164,0.0164,0.0164,0.016,0.016,0.016,0.0161,0.0304,0.0307,0.0311,0,0,0,0,0,0,0,0,0,0,0,0,0,0.0065,0.0065,0.0118,0.012,0.0121,0.0164,0.0164,0.0163,0.016,0.016,0.0161,0.0161,0.0303,0.0307,0.0311,0,0,0,0,0,0,0,0,0,0,0,0,0,0.0089,0.0065,0.0118,0.0131,0.0134,0.0164,0.0164,0.0163,0.016,0.016,0.0161,0.0161,0.0301,0.0306,0.0312,0.0341,0,0,0.0329,0.0331,0,0,0,0,0,0,0,0,0.0087,0.0089,0.0128,0.0131,0.0133,0.0165,0.0198,0.0231,0.016,0.014,0.0161,0.0161,0.0272,0.028,0.0273,0.0347,0.0354,0.0329,0.0332,0.0335,0.0336,0,0,0,0,0,0,0,0.0085,0.0088,0.0127,0.013,0.0133,0.0149,0.0151,0.0203,0.0199,0.0142,0.0144,0.0164,0.0273,0.0268,0.0277,0.0356,0.0329,0.0334,0.0337,0.0339,0.0572,0.0575,0,0,0,0,0,0,0.0096,0.0086,0.0126,0.0129,0.0121,0.015,0.0152,0.0147,0.0196,0.0206,0.0164,0.0164,0.0258,0.0271,0.0283,0.0436,0.0335,0.034,0.0343,0.0569,0.0573,0.0576,0,0,0,0,0,0,0.0094,0.0098,0.0124,0.0118,0.0123,0.0151,0.0145,0.0148,0.0176,0.0213,0.0223,0.0194,0.0259,0.0275,0.0358,0.0437,0.0342,0.0347,0.0566,0.057,0.0574,0.0669,0,0,0,0,0,0,0.0092,0.0096,0.0102,0.0117,0.0124,0.0163,0.0146,0.0149,0.019,0.0191,0.0243,0.0254,0.0261,0.035,0.0364,0.0443,0.0352,0.0562,0.0568,0.0573,0.0662,0.0676,0.0688,0,0,0,0,0,0.0089,0.0109,0.0101,0.0107,0.0127,0.0165,0.0169,0.0184,0.0192,0.0209,0.0249,0.0254,0.0395,0.0357,0.0372,0.0455,0.0559,0.0566,0.0572,0.0657,0.0673,0.0688,0,0,0,0,0,0,0.0096,0.0112,0.0103,0.0126,0.015,0.0169,0.0199,0.0208,0.0247,0.0261,0.0286,0.03,0.0397,0.0415,0.0372,0.0537,0.0481,0.0491,0.054,0.0556,0.0569,0.0591,0.0356,0,0,0,0,0,0.0098,0.0113,0.0129,0.0152,0.0167,0.0186,0.0208,0.0218,0.0256,0.0273,0.0312,0.0367,0.043,0.0483,0.052,0.0622,0.0594,0.0687,0.0699,0.071,0.0739,0.0761,0.0778,0.0597,0.0597,0.0597,0,0,0.0109,0.0123,0.0131,0.0155,0.0174,0.0194,0.0198,0.0245,0.0283,0.0288,0.0364,0.0405,0.046,0.0557,0.0606,0.0592,0.0737,0.0718,0.0727,0.0751,0.0769,0.0787,0.0802,0.0601,0.0601,0.06,0,0,0.0139,0.015,0.0165,0.0183,0.0223,0.0234,0.0258,0.0292,0.0333,0.0407,0.0425,0.0511,0.0603,0.0659,0.0702,0.0815,0.0787,0.0847,0.0958,0.0979,0.0993,0.1006,0.094,0.0946,0.0875,0.0875,0.0876,0,0.014,0.0162,0.0182,0.0199,0.0238,0.0256,0.0293,0.0326,0.0388,0.0453,0.0446,0.0612,0.065,0.0796,0.0846,0.0846,0.083,0.0892,0.0994,0.1006,0.1018,0.0947,0.0953,0.0881,0.088,0.088,0.0879,0,0.0176,0.019,0.0214,0.0231,0.0278,0.0317,0.037,0.042,0.0478,0.0527,0.0681,0.0738,0.0855,0.0885,0.0914,0.105,0.0997,0.0985,0.0949,0.1041,0.096,0.0965,0.0888,0.0887,0.0885,0.0884,0,0,0.0165,0.0219,0.0222,0.0248,0.0304,0.0347,0.043,0.0527,0.0607,0.0688,0.0819,0.0951,0.1016,0.1071,0.1125,0.1168,0.1214,0.1146,0.1145,0.1069,0.1214,0.1129,0.1123,0.1236,0.1238,0.1241,0.1104,0,0.0176,0.0216,0.0258,0.0318,0.0353,0.0416,0.0499,0.0598,0.0694,0.0809,0.0926,0.1048,0.1082,0.1164,0.1229,0.1225,0.1242,0.1249,0.1148,0.1143,0.1049,0.1133,0.1249,0.1107,0.1107,0.1108,0.1108,0,0.0193,0.0223,0.0285,0.0384,0.0412,0.0451,0.0614,0.0703,0.0863,0.0955,0.1113,0.1181,0.1321,0.1301,0.1359,0.1373,0.1325,0.1285,0.1278,0.118,0.107,0.101,0.1115,0.1114,0.1114,0.1113,0.1113,0,0.019,0.0251,0.0313,0.0337,0.0439,0.0507,0.0587,0.075,0.0857,0.1056,0.1133,0.1302,0.1379,0.1391,0.135,0.1374,0.1326,0.1323,0.1177,0.1164,0.1232,0.122,0.133,0.133,0.133,0.1331,0.1331,0,0.0191,0.023,0.0306,0.0325,0.0432,0.0531,0.0685,0.078,0.0946,0.1075,0.1228,0.1295,0.1414,0.1403,0.1362,0.1277,0.1329,0.1212,0.1155,0.1265,0.126,0.123,0.122,0.1325,0.1326,0.1327,0.1328,0,0.0168,0.0213,0.0274,0.0376,0.0425,0.0511,0.0695,0.0797,0.0956,0.1117,0.1177,0.1298,0.1303,0.1321,0.1289,0.1262,0.1178,0.1108,0.1167,0.1111,0.0991,0.0988,0.0975,0.0972,0.0969,0.0967,0.0965,0,0.0154,0.0185,0.0289,0.034,0.0381,0.0527,0.0629,0.0799,0.0894,0.1075,0.1109,0.1171,0.1245,0.1117,0.1133,0.1043,0.1026,0.0976,0.1082,0.1025,0.097,0.0972,0.0973,0.096,0.0959,0.0958,0.0958,0,0.0128,0.0166,0.0212,0.0306,0.0398,0.0515,0.0643,0.07,0.0906,0.1032,0.1067,0.1085,0.1074,0.1054,0.0995,0.0918,0.1036,0.0947,0.0954,0.1053,0.1005,0.0955,0.0959,0.0948,0.0949,0.095,0.0951,0,0.0103,0.0125,0.0186,0.0278,0.0384,0.0457,0.0551,0.0651,0.0761,0.096,0.0926,0.0985,0.1053,0.0973,0.0882,0.0858,0.0872,0.0877,0.0889,0.09,0.0945,0.0878,0.0752,0,0,0,0,0,0.0082,0.0105,0.0163,0.0244,0.0338,0.0392,0.054,0.0632,0.0804,0.0827,0.0899,0.0886,0.0867,0.0827,0.0786,0.0802,0.0837,0.0749,0.084,0.0892,0.0903,0.0968,0,0,0,0,0,0,0.0067,0.0108,0.0134,0.0199,0.0241,0.0332,0.042,0.0529,0.055,0.0718,0.0685,0.0822,0.0763,0.0867,0.0755,0.0754,0.0797,0.0777,0.0775,0.0885,0.0896,0.0905,0.0975,0,0,0,0,0]},{"header":{"parameterUnit":"m.s-1","parameterCategory":2,"la1":30.2991,"la2":30.254,"lo1":-89.0895,"lo2":-89.0444,"dy":0.0017,"dx":0.0017,"nx":28,"ny":28,"refTime":"2025-07-15T09:00:00:Z","depth":"4","parameterNumber":3,"parameterNumberName":"V-component_of_CURRENTS"},"data":[0,0,0,0,0,0,0,0,0,0,0,0,0,0,0,0,0,0,0,0,0,0,0,0,0,0,0,0,0,0,0,0,0,0,0,0,0,0,0,0,0,0,0,0,0,0,0,0,0,0,0,0,0,0,0,0,0,0,0.0543,0.0543,0,0.0543,0.0543,0.0542,0.0579,0.058,0.0582,0.0583,0.0591,0.059,0.0589,0,0,0,0,0,0,0,0,0,0,0,0,0,0.0547,0.0547,0.0543,0.0543,0.0544,0.0543,0.0543,0.0542,0.0579,0.058,0.0582,0.0584,0.0591,0.059,0.0588,0,0,0,0,0,0,0,0,0,0,0,0,0,0.0541,0.0546,0.0543,0.0566,0.0569,0.0543,0.0543,0.0542,0.0578,0.058,0.0583,0.0585,0.0592,0.059,0.0588,0.0533,0,0,0.0583,0.0582,0,0,0,0,0,0,0,0,0.0541,0.054,0.0562,0.0564,0.0567,0.0568,0.0547,0.0541,0.0578,0.0569,0.0583,0.0586,0.0586,0.0585,0.0572,0.0534,0.0534,0.0583,0.0582,0.0581,0.058,0,0,0,0,0,0,0,0.0542,0.054,0.0537,0.0563,0.0566,0.0568,0.0569,0.0546,0.0561,0.057,0.0574,0.0582,0.0587,0.0573,0.0572,0.0534,0.0583,0.0581,0.058,0.058,0.0516,0.0515,0,0,0,0,0,0,0.0551,0.054,0.0537,0.0538,0.0566,0.0566,0.0567,0.0561,0.0561,0.0565,0.058,0.0584,0.0575,0.0574,0.0573,0.0581,0.0581,0.0579,0.0578,0.0516,0.0516,0.0515,0,0,0,0,0,0,0.0551,0.055,0.0537,0.0545,0.0544,0.0565,0.0557,0.056,0.0573,0.057,0.0573,0.0594,0.0577,0.0575,0.0585,0.0579,0.0579,0.0577,0.0517,0.0516,0.0515,0.0549,0,0,0,0,0,0,0.0551,0.055,0.0556,0.0545,0.0544,0.0543,0.0555,0.0559,0.0576,0.0581,0.0582,0.0584,0.0579,0.0588,0.0583,0.0576,0.0576,0.0518,0.0517,0.0515,0.0549,0.055,0.055,0,0,0,0,0,0.0551,0.056,0.0555,0.0556,0.0549,0.0543,0.0543,0.0561,0.0575,0.058,0.059,0.0585,0.0576,0.0586,0.0581,0.0574,0.0518,0.0517,0.0516,0.0549,0.055,0.055,0,0,0,0,0,0,0.0576,0.0564,0.056,0.0567,0.0562,0.0553,0.0571,0.0568,0.0575,0.0592,0.0584,0.0585,0.0588,0.0571,0.0582,0.0549,0.0542,0.054,0.0569,0.0569,0.057,0.0567,0.0574,0,0,0,0,0,0.0578,0.058,0.0565,0.0575,0.0576,0.0569,0.0574,0.058,0.0583,0.0589,0.0589,0.0583,0.0567,0.0567,0.0553,0.0536,0.0474,0.0524,0.0524,0.0525,0.0517,0.0396,0.0385,0.051,0.051,0.051,0,0,0.0593,0.0588,0.0591,0.058,0.0582,0.058,0.0578,0.0593,0.0602,0.0586,0.0609,0.0589,0.0564,0.0554,0.0551,0.0547,0.0461,0.0523,0.0525,0.0516,0.0393,0.0381,0.037,0.0509,0.0509,0.0509,0,0,0.0618,0.0617,0.0621,0.0616,0.062,0.0611,0.0618,0.0612,0.0626,0.0633,0.0619,0.0594,0.059,0.0554,0.0539,0.0526,0.0469,0.0526,0.0526,0.041,0.0398,0.0387,0.0309,0.029,0.0525,0.0525,0.0525,0,0.0627,0.0632,0.0624,0.0626,0.0638,0.0626,0.0636,0.0636,0.0636,0.0629,0.0656,0.0592,0.0582,0.0526,0.0536,0.0526,0.0463,0.0532,0.0409,0.0397,0.0385,0.0307,0.0286,0.0526,0.0526,0.0526,0.0526,0,0.0648,0.0654,0.0664,0.0656,0.0666,0.0676,0.0675,0.0671,0.0685,0.0671,0.0641,0.0612,0.0569,0.0555,0.0555,0.046,0.0446,0.0425,0.0408,0.0374,0.0295,0.0272,0.0528,0.0528,0.0527,0.0527,0,0,0.0642,0.0666,0.0669,0.0678,0.0686,0.069,0.0701,0.0685,0.067,0.0665,0.0627,0.0602,0.0572,0.0549,0.0517,0.0423,0.0304,0.0401,0.0394,0.0326,0.0064,0.014,0.0123,0.0257,0.0253,0.025,0.0049,0,0.0652,0.0672,0.0683,0.0706,0.0718,0.0712,0.0717,0.0704,0.0695,0.0651,0.0598,0.0564,0.0576,0.055,0.046,0.0334,0.0244,0.0362,0.0105,0.0098,0.017,0.0099,0.0237,0.0032,0.0027,0.0023,0.0021,0,0.0656,0.0673,0.0708,0.0726,0.073,0.0737,0.0726,0.0737,0.067,0.0659,0.06,0.0554,0.0443,0.0452,0.0223,0.0298,0.0194,0.0095,0.0084,0.0125,0.0132,0.0067,-0.0021,-0.0017,-0.0014,-0.0011,-0.0009,0,0.0657,0.0684,0.072,0.073,0.0746,0.0752,0.0762,0.073,0.0726,0.0659,0.062,0.0496,0.0424,0.0264,0.012,0.015,-0.0152,-0.0144,-0.0179,-0.0174,-0.0196,-0.0182,-0.0328,-0.0327,-0.0327,-0.0326,-0.0326,0,0.0652,0.0674,0.0723,0.0734,0.0763,0.0782,0.0801,0.0771,0.0723,0.07,0.0638,0.0541,0.0368,0.0197,0.007,-0.0112,-0.0192,-0.0198,-0.0235,-0.0172,-0.0154,-0.0211,-0.0195,-0.0334,-0.0332,-0.0331,-0.033,0,0.0638,0.0673,0.0711,0.0749,0.0767,0.0797,0.0835,0.083,0.0794,0.0746,0.0721,0.0532,0.0336,0.0172,-0.0116,-0.0168,-0.036,-0.0404,-0.0313,-0.0338,-0.0291,-0.027,-0.0477,-0.0476,-0.0476,-0.0475,-0.0475,0,0.0628,0.0652,0.0728,0.0761,0.0781,0.0842,0.0874,0.0871,0.0852,0.0729,0.0665,0.047,0.0363,0.0007,-0.0163,-0.0389,-0.0396,-0.0479,-0.0385,-0.0299,-0.0314,-0.0295,-0.0276,-0.0474,-0.0474,-0.0474,-0.0474,0,0.0608,0.0649,0.068,0.0752,0.0807,0.0851,0.0876,0.0876,0.0864,0.0826,0.0621,0.0459,0.0238,-0.0003,-0.0153,-0.0325,-0.0419,-0.0473,-0.0474,-0.0387,-0.0297,-0.0309,-0.0291,-0.0472,-0.0472,-0.0472,-0.0472,0,0.0594,0.0616,0.0671,0.0726,0.0806,0.0825,0.0858,0.0825,0.0807,0.0706,0.0615,0.0405,0.0259,0.0023,-0.0154,-0.0265,-0.0278,-0.0293,-0.0304,-0.0308,-0.0166,-0.0021,-0.0166,0,0,0,0,0,0.0573,0.0591,0.0636,0.0697,0.0776,0.0813,0.0831,0.0854,0.0875,0.0756,0.0696,0.0506,0.0253,0.0069,-0.0027,-0.013,-0.0293,-0.0245,-0.0312,-0.046,-0.0462,-0.0313,0,0,0,0,0,0,0.0558,0.06,0.0616,0.0667,0.0724,0.078,0.0818,0.0812,0.073,0.0724,0.0561,0.0514,0.0232,0.0327,-0.0021,-0.0066,-0.0113,-0.037,-0.0371,-0.0459,-0.0461,-0.0463,-0.031,0,0,0,0,0]}]]